Erneuerung der Klassenberechtigung SEP SP

Flugschule

Flugschule

Wir bieten eine professionelle und umfassende Ausbildung.

Flugwetter Augsburg

[Quelle: ADDS]
METAR
EDMA 292350Z AUTO 24012KT 9999 FEW013/// BKN048/// OVC060/// M00/M02 Q1013 =
EDMA 291700Z 2918/3003 25010KT 9999 FEW006 BKN020 TEMPO 2918/3003 1500 SHSN BKN006TCU
TAF
EDMA 291700Z 2918/3003 25010KT 9999 FEW006 BKN020 TEMPO 2918/3003 1500 SHSN BKN006TCU =

Kontakt

Erneuerung der Klassenberechtigung SEP SP

Auffrischungsschulung

Bei abgelaufenen Klassen-, Muster- und Instrumentenflugberechtigungen wird gemäß AMC1 FCL.625(c) und AMC1 FCL-740(b)(1) Auffrischungstraining vor der Prüfung notwendig.

Diese Tabelle soll einen Überblick darüber geben, was die Mindestanforderungen laut EASA Teil FCL sind.

Ablauf

Erneuerung Klassen- und Muster- berechtigungen

Erneuerung Instrumentenflug- berechtigung

Kombination (beides abgelaufen)
< 3 Monate nicht vorgeschrieben nicht vorgeschrieben nicht vorgeschrieben
> 3 Monate & < 1 Jahr 2 Trainingseinheiten 1 Trainingseinheit 3 Trainingseinheiten
> 1 Jahr & < 3 Jahre 3 Trainingseinheiten 3 Trainingseinheiten 6 Trainingseinheiten
> 3 Jahre & < 7 Jahre Neuerwerb (SEP 5h) 3 Trainingseinheiten 8 Trainingseinheiten
> 7 Jahre Neuerwerb (SEP 5h) Neuerwerb Neuerwerb